TimeCET,TemperatureF,Dew PointF,Humidity,Sea Level PressureIn,VisibilityMPH,Wind Direction,Wind SpeedMPH,Gust SpeedMPH,PrecipitationIn,Events,Conditions,WindDirDegrees,DateUTC
12:00 AM,26.6,26.6,100,30.06,0.5,Variable,1.2,-,N/A,Fog,Light Freezing Fog,0,2013-01-01 23:00:00
12:30 AM,26.6,26.6,100,30.06,0.4,Variable,2.3,-,N/A,Fog,Light Freezing Fog,0,2013-01-01 23:30:00
1:00 AM,26.6,26.6,100,30.06,0.2,Variable,2.3,-,N/A,Fog,Light Freezing Fog,0,2013-01-02 00:00:00
1:30 AM,28.4,28.4,100,30.06,0.2,Variable,2.3,-,N/A,Fog,Light Freezing Fog,0,2013-01-02 00:30:00
2:00 AM,28.4,28.4,100,30.06,0.2,Variable,2.3,-,N/A,Fog,Light Freezing Fog,0,2013-01-02 01:00:00
2:30 AM,28.4,28.4,100,30.06,0.3,Variable,3.5,-,N/A,Fog,Light Freezing Fog,0,2013-01-02 01:30:00
3:00 AM,28.4,28.4,100,30.06,0.3,Variable,3.5,-,N/A,Fog,Light Freezing Fog,0,2013-01-02 02:00:00
3:30 AM,28.4,28.4,100,30.06,0.3,Variable,3.5,-,N/A,Fog,Light Freezing Fog,0,2013-01-02 02:30:00
4:00 AM,28.4,28.4,100,30.09,0.3,Variable,3.5,-,N/A,Fog,Light Freezing Fog,0,2013-01-02 03:00:00
4:30 AM,28.4,28.4,100,30.09,0.2,Variable,3.5,-,N/A,Fog,Light Freezing Fog,0,2013-01-02 03:30:00
5:00 AM,26.6,26.6,100,30.09,0.2,Variable,2.3,-,N/A,Fog,Light Freezing Fog,0,2013-01-02 04:00:00
5:30 AM,28.4,28.4,100,30.09,0.2,Variable,2.3,-,N/A,Fog,Light Freezing Fog,0,2013-01-02 04:30:00
6:00 AM,28.4,26.6,93,30.09,0.5,Variable,2.3,-,N/A,Fog,Light Freezing Fog,0,2013-01-02 05:00:00
6:30 AM,26.6,26.6,100,30.12,0.9,Variable,2.3,-,N/A,,Overcast,0,2013-01-02 05:30:00
7:00 AM,26.6,26.6,100,30.12,1.1,Variable,2.3,-,N/A,,Overcast,0,2013-01-02 06:00:00
7:30 AM,28.4,28.4,100,30.12,1.1,Variable,2.3,-,N/A,,Overcast,0,2013-01-02 06:30:00
8:00 AM,28.4,26.6,93,30.12,1.2,Calm,Calm,-,N/A,,Overcast,0,2013-01-02 07:00:00
8:30 AM,28.4,28.4,100,30.15,1.2,Variable,2.3,-,N/A,,Mostly Cloudy,0,2013-01-02 07:30:00
9:00 AM,28.4,28.4,100,30.15,1.2,Variable,3.5,-,N/A,,Overcast,0,2013-01-02 08:00:00
9:30 AM,28.4,28.4,100,30.18,1.4,Variable,2.3,-,N/A,,Overcast,0,2013-01-02 08:30:00
10:00 AM,28.4,28.4,100,30.18,1.4,Variable,2.3,-,N/A,,Overcast,0,2013-01-02 09:00:00
10:30 AM,28.4,28.4,100,30.18,1.4,Variable,3.5,-,N/A,,Overcast,0,2013-01-02 09:30:00
11:00 AM,28.4,28.4,100,30.21,1.4,Variable,2.3,-,N/A,,Overcast,0,2013-01-02 10:00:00
11:30 AM,28.4,28.4,100,30.21,1.4,Variable,3.5,-,N/A,,Overcast,0,2013-01-02 10:30:00
12:00 PM,28.4,28.4,100,30.21,1.4,Variable,3.5,-,N/A,,Overcast,0,2013-01-02 11:00:00
12:30 PM,28.4,28.4,100,30.21,1.4,Variable,2.3,-,N/A,,Overcast,0,2013-01-02 11:30:00
1:00 PM,30.2,30.2,100,30.21,1.4,Variable,2.3,-,N/A,,Overcast,0,2013-01-02 12:00:00
1:30 PM,30.2,30.2,100,30.21,1.6,Variable,3.5,-,N/A,,Overcast,0,2013-01-02 12:30:00
2:00 PM,30.2,30.2,100,30.21,2.2,Variable,3.5,-,N/A,,Overcast,0,2013-01-02 13:00:00
2:30 PM,32.0,32.0,100,30.21,2.5,Variable,3.5,-,N/A,,Mostly Cloudy,0,2013-01-02 13:30:00
3:00 PM,32.0,32.0,100,30.24,2.5,Variable,2.3,-,N/A,,Mostly Cloudy,0,2013-01-02 14:00:00
3:30 PM,32.0,32.0,100,30.24,2.5,West,4.6,-,N/A,,Mostly Cloudy,280,2013-01-02 14:30:00
4:00 PM,32.0,32.0,100,30.24,2.5,West,5.8,-,N/A,,Scattered Clouds,280,2013-01-02 15:00:00
4:30 PM,30.2,30.2,100,30.27,2.5,West,5.8,-,N/A,,Mist,280,2013-01-02 15:30:00
5:00 PM,30.2,30.2,100,30.27,3.1,West,5.8,-,N/A,,Mist,280,2013-01-02 16:00:00
5:30 PM,30.2,30.2,100,30.27,3.7,West,4.6,-,N/A,,Unknown,280,2013-01-02 16:30:00
6:00 PM,30.2,30.2,100,30.30,3.7,WNW,4.6,-,N/A,,Unknown,290,2013-01-02 17:00:00
6:30 PM,30.2,30.2,100,30.30,3.7,West,4.6,-,N/A,,Unknown,260,2013-01-02 17:30:00
7:00 PM,30.2,30.2,100,30.33,3.7,West,8.1,-,N/A,,Unknown,270,2013-01-02 18:00:00
7:30 PM,30.2,30.2,100,30.33,3.7,West,6.9,-,N/A,,Unknown,260,2013-01-02 18:30:00
8:00 PM,30.2,30.2,100,30.33,3.7,WNW,4.6,-,N/A,,Unknown,300,2013-01-02 19:00:00
8:30 PM,30.2,30.2,100,30.36,3.7,WSW,4.6,-,N/A,,Unknown,250,2013-01-02 19:30:00
9:00 PM,30.2,30.2,100,30.36,3.7,WSW,5.8,-,N/A,,Unknown,250,2013-01-02 20:00:00
9:30 PM,32.0,32.0,100,30.36,3.7,Variable,2.3,-,N/A,,Unknown,0,2013-01-02 20:30:00
10:00 PM,30.2,30.2,100,30.36,3.7,SW,4.6,-,N/A,,Unknown,230,2013-01-02 21:00:00
10:30 PM,32.0,32.0,100,30.39,5.0,West,6.9,-,N/A,,Unknown,270,2013-01-02 21:30:00
11:00 PM,33.8,33.8,100,30.39,5.0,West,5.8,-,N/A,,Unknown,270,2013-01-02 22:00:00
11:30 PM,30.2,30.2,100,30.39,5.0,Variable,2.3,-,N/A,,Unknown,0,2013-01-02 22:30:00